| time (UTC) | temp C | wind direction | speed KPH | gust KPH | rain 1hr cm | rain 24hr cm | rain mn cm | humidity % | barometer mb |
| 20260509064002 | 7 | 182 | 1.6 | 6.4 | 0.00 | 0.00 | 0.00 | 68 | 1006.0 |
| 20260509063017 | 7 | 203 | 3.2 | 8.0 | 0.00 | 0.00 | 0.00 | 67 | 1006.1 |
| 20260509062009 | 7 | 200 | 3.2 | 9.7 | 0.00 | 0.00 | 0.00 | 64 | 1006.0 |
| 20260509061007 | 7 | 203 | 3.2 | 8.0 | 0.00 | 0.00 | 0.00 | 64 | 1006.1 |
| 20260509060003 | 7 | 173 | 3.2 | 6.4 | 0.00 | 0.00 | 0.00 | 63 | 1006.3 |
| 20260509055014 | 6 | 186 | 3.2 | 9.7 | 0.00 | 0.00 | 0.00 | 61 | 1006.3 |
| 20260509054018 | 6 | 195 | 3.2 | 8.0 | 0.00 | 0.00 | 0.00 | 61 | 1006.5 |
| 20260509053025 | 6 | 192 | 3.2 | 8.0 | 0.00 | 0.00 | 0.00 | 62 | 1006.4 |
| 20260509052019 | 6 | 178 | 1.6 | 4.8 | 0.00 | 0.00 | 0.00 | 62 | 1006.4 |
| 20260509051002 | 6 | 180 | 3.2 | 4.8 | 0.00 | 0.00 | 0.00 | 62 | 1006.3 |
| 20260509050004 | 6 | 180 | 1.6 | 6.4 | 0.00 | 0.00 | 0.00 | 60 | 1006.5 |
| 20260509044957 | 6 | 177 | 3.2 | 6.4 | 0.00 | 0.00 | 0.00 | 64 | 1006.6 |
| 20260509044002 | 6 | 173 | 1.6 | 4.8 | 0.00 | 0.00 | 0.00 | 63 | 1006.6 |
| 20260509042025 | 7 | 213 | 3.2 | 4.8 | 0.00 | 0.00 | 0.00 | 63 | 1006.9 |
| 20260509040958 | 7 | 215 | 1.6 | 6.4 | 0.00 | 0.00 | 0.00 | 61 | 1006.9 |
| 20260509040010 | 7 | 215 | 1.6 | 4.8 | 0.00 | 0.00 | 0.00 | 59 | 1007.0 |
| 20260509035017 | 7 | 215 | 1.6 | 3.2 | 0.00 | 0.00 | 0.00 | 57 | 1007.0 |
| 20260509034016 | 8 | 216 | 1.6 | 4.8 | 0.00 | 0.00 | 0.00 | 55 | 1007.1 |
| 20260509033025 | 8 | 216 | 0.0 | 4.8 | 0.00 | 0.00 | 0.00 | 55 | 1007.1 |
| 20260509032004 | 8 | 216 | 1.6 | 6.4 | 0.00 | 0.00 | 0.00 | 52 | 1007.1 |
| 20260509031013 | 8 | 226 | 1.6 | 6.4 | 0.00 | 0.00 | 0.00 | 50 | 1007.4 |
| 20260509030003 | 8 | 235 | 1.6 | 4.8 | 0.00 | 0.00 | 0.00 | 48 | 1007.5 |
| 20260509024000 | 9 | 235 | 1.6 | 4.8 | 0.00 | 0.00 | 0.00 | 46 | 1007.7 |
| 20260509023043 | 9 | 236 | 1.6 | 3.2 | 0.00 | 0.00 | 0.00 | 46 | 1007.7 |
| 20260509021029 | 10 | 236 | 1.6 | 3.2 | 0.00 | 0.00 | 0.00 | 45 | 1007.9 |
| 20260509020013 | 10 | 236 | 3.2 | 4.8 | 0.00 | 0.00 | 0.00 | 43 | 1007.8 |
| 20260509015003 | 10 | 241 | 3.2 | 4.8 | 0.00 | 0.00 | 0.00 | 42 | 1007.8 |
| 20260509014024 | 11 | 241 | 1.6 | 3.2 | 0.00 | 0.00 | 0.00 | 40 | 1007.8 |
| 20260509013013 | 11 | 242 | 1.6 | 3.2 | 0.00 | 0.00 | 0.00 | 38 | 1007.7 |
| 20260509012033 | 11 | 242 | 1.6 | 3.2 | 0.00 | 0.00 | 0.00 | 35 | 1007.6 |
| 20260509011005 | 12 | 242 | 0.0 | 3.2 | 0.00 | 0.00 | 0.00 | 32 | 1007.6 |
| 20260509010026 | 12 | 242 | 3.2 | 4.8 | 0.00 | 0.00 | 0.00 | 32 | 1007.7 |
| 20260509005019 | 13 | 259 | 1.6 | 4.8 | 0.00 | 0.00 | 0.00 | 29 | 1007.7 |
| 20260509004029 | 13 | 259 | 0.0 | 1.6 | 0.00 | 0.00 | 0.00 | 28 | 1007.6 |
| 20260509002034 | 15 | 259 | 0.0 | 1.6 | 0.00 | 0.00 | 0.00 | 27 | 1007.7 |
| 20260509001003 | 15 | 259 | 1.6 | 8.0 | 0.00 | 0.00 | 0.00 | 24 | 1007.8 |
| 20260508235005 | 16 | 236 | 6.4 | 16.1 | 0.00 | 0.00 | 0.00 | 23 | 1008.0 |
| 20260508234006 | 16 | 292 | 8.0 | 17.7 | 0.00 | 0.00 | 0.00 | 22 | 1008.2 |
| 20260508233022 | 16 | 264 | 8.0 | 17.7 | 0.00 | 0.00 | 0.00 | 21 | 1008.1 |
| 20260508232007 | 17 | 277 | 8.0 | 16.1 | 0.00 | 0.00 | 0.00 | 23 | 1008.1 |
| 20260508231027 | 17 | 298 | 11.3 | 19.3 | 0.00 | 0.00 | 0.00 | 21 | 1008.1 |
| 20260508230007 | 17 | 255 | 9.7 | 16.1 | 0.00 | 0.00 | 0.00 | 20 | 1008.1 |
| 20260508225001 | 17 | 277 | 9.7 | 17.7 | 0.00 | 0.00 | 0.00 | 22 | 1008.3 |
| 20260508224001 | 17 | 288 | 14.5 | 20.9 | 0.00 | 0.00 | 0.00 | 21 | 1008.3 |
| 20260508223003 | 17 | 244 | 9.7 | 19.3 | 0.00 | 0.00 | 0.00 | 20 | 1008.4 |
| 20260508222003 | 17 | 274 | 11.3 | 20.9 | 0.00 | 0.00 | 0.00 | 21 | 1008.4 |
| 20260508221009 | 17 | 252 | 11.3 | 22.5 | 0.00 | 0.00 | 0.00 | 21 | 1008.4 |
| 20260508220005 | 17 | 296 | 11.3 | 24.1 | 0.00 | 0.00 | 0.00 | 21 | 1008.5 |
| 20260508215013 | 17 | 273 | 9.7 | 24.1 | 0.00 | 0.00 | 0.00 | 21 | 1008.5 |
| 20260508214002 | 17 | 263 | 17.7 | 22.5 | 0.00 | 0.00 | 0.00 | 22 | 1008.5 |
| 20260508213001 | 17 | 279 | 12.9 | 25.7 | 0.00 | 0.00 | 0.00 | 20 | 1008.4 |
| 20260508212012 | 17 | 261 | 9.7 | 20.9 | 0.00 | 0.00 | 0.00 | 27 | 1008.5 |
| 20260508210025 | 17 | 221 | 11.3 | 22.5 | 0.00 | 0.00 | 0.00 | 21 | 1008.6 |
| 20260508205058 | 17 | 250 | 8.0 | 19.3 | 0.00 | 0.00 | 0.00 | 21 | 1008.6 |
| 20260508204002 | 17 | 259 | 16.1 | 24.1 | 0.00 | 0.00 | 0.00 | 22 | 1008.8 |
| 20260508203014 | 18 | 232 | 14.5 | 24.1 | 0.00 | 0.00 | 0.00 | 23 | 1009.0 |
| 20260508202016 | 18 | 252 | 12.9 | 24.1 | 0.00 | 0.00 | 0.00 | 23 | 1008.9 |
| 20260508201015 | 18 | 278 | 12.9 | 27.4 | 0.00 | 0.00 | 0.00 | 22 | 1009.1 |
| 20260508200005 | 18 | 277 | 17.7 | 27.4 | 0.00 | 0.00 | 0.00 | 24 | 1009.2 |
| 20260508195007 | 17 | 243 | 16.1 | 30.6 | 0.00 | 0.00 | 0.00 | 25 | 1009.3 |
| 20260508194007 | 17 | 279 | 16.1 | 22.5 | 0.00 | 0.00 | 0.00 | 21 | 1009.4 |
| 20260508192959 | 17 | 279 | 11.3 | 20.9 | 0.00 | 0.00 | 0.00 | 23 | 1009.5 |
| 20260508192024 | 17 | 284 | 12.9 | 25.7 | 0.00 | 0.00 | 0.00 | 29 | 1009.6 |
| 20260508191004 | 17 | 280 | 9.7 | 22.5 | 0.00 | 0.00 | 0.00 | 24 | 1009.7 |
| 20260508190003 | 17 | 256 | 12.9 | 24.1 | 0.00 | 0.00 | 0.00 | 26 | 1009.8 |
| 20260508185010 | 17 | 283 | 14.5 | 24.1 | 0.00 | 0.00 | 0.00 | 28 | 1009.9 |
| 20260508184014 | 17 | 302 | 11.3 | 20.9 | 0.00 | 0.00 | 0.00 | 27 | 1009.8 |
| 20260508183015 | 17 | 223 | 4.8 | 27.4 | 0.00 | 0.00 | 0.00 | 25 | 1010.0 |
| 20260508182006 | 17 | 290 | 8.0 | 20.9 | 0.00 | 0.00 | 0.00 | 27 | 1010.2 |
| 20260508180002 | 17 | 251 | 12.9 | 27.4 | 0.00 | 0.00 | 0.00 | 27 | 1010.3 |
| 20260508175004 | 17 | 265 | 9.7 | 24.1 | 0.00 | 0.00 | 0.00 | 26 | 1010.2 |
| 20260508174007 | 17 | 321 | 11.3 | 19.3 | 0.00 | 0.00 | 0.00 | 33 | 1010.5 |
| 20260508173002 | 17 | 214 | 6.4 | 16.1 | 0.00 | 0.00 | 0.00 | 31 | 1010.7 |
| 20260508172008 | 17 | 301 | 11.3 | 17.7 | 0.00 | 0.00 | 0.00 | 31 | 1010.9 |
| 20260508171058 | 17 | 271 | 6.4 | 12.9 | 0.00 | 0.00 | 0.00 | 29 | 1010.9 |
| 20260508170004 | 17 | 293 | 4.8 | 22.5 | 0.00 | 0.00 | 0.00 | 30 | 1011.0 |
| 20260508165009 | 17 | 266 | 4.8 | 19.3 | 0.00 | 0.00 | 0.00 | 35 | 1011.2 |
| 20260508164022 | 16 | 286 | 3.2 | 19.3 | 0.00 | 0.00 | 0.00 | 36 | 1011.4 |
| 20260508163004 | 16 | 259 | 8.0 | 22.5 | 0.00 | 0.00 | 0.00 | 35 | 1011.5 |
| 20260508162016 | 16 | 279 | 8.0 | 17.7 | 0.00 | 0.00 | 0.00 | 35 | 1011.5 |
| 20260508161005 | 15 | 244 | 9.7 | 17.7 | 0.00 | 0.00 | 0.00 | 34 | 1011.6 |
| 20260508160016 | 15 | 269 | 6.4 | 12.9 | 0.00 | 0.00 | 0.00 | 37 | 1011.7 |
| 20260508154025 | 15 | 304 | 1.6 | 11.3 | 0.00 | 0.00 | 0.00 | 38 | 1011.6 |
| 20260508153009 | 14 | 229 | 6.4 | 12.9 | 0.00 | 0.00 | 0.00 | 43 | 1011.9 |
| 20260508152113 | 14 | 240 | 4.8 | 12.9 | 0.00 | 0.00 | 0.00 | 41 | 1011.9 |
| 20260508150959 | 13 | 190 | 4.8 | 14.5 | 0.00 | 0.00 | 0.00 | 45 | 1012.0 |
| 20260508150003 | 13 | 207 | 3.2 | 6.4 | 0.00 | 0.00 | 0.00 | 48 | 1012.1 |
| 20260508145000 | 13 | 239 | 1.6 | 8.0 | 0.00 | 0.00 | 0.00 | 44 | 1012.2 |
| 20260508144002 | 12 | 205 | 6.4 | 8.0 | 0.00 | 0.00 | 0.00 | 58 | 1012.2 |
| 20260508142012 | 11 | 209 | 6.4 | 12.9 | 0.00 | 0.00 | 0.00 | 65 | 1012.3 |
| 20260508141028 | 11 | 223 | 3.2 | 11.3 | 0.00 | 0.00 | 0.00 | 69 | 1012.5 |
| 20260508140114 | 10 | 254 | 1.6 | 8.0 | 0.00 | 0.00 | 0.00 | 75 | 1012.6 |
| 20260508135001 | 9 | 197 | 4.8 | 11.3 | 0.00 | 0.00 | 0.00 | 79 | 1012.5 |
| 20260508134015 | 8 | 216 | 3.2 | 11.3 | 0.00 | 0.00 | 0.00 | 84 | 1012.5 |
| 20260508132001 | 7 | 197 | 8.0 | 12.9 | 0.00 | 0.00 | 0.00 | 94 | 1012.9 |
| 20260508131008 | 6 | 191 | 4.8 | 11.3 | 0.00 | 0.00 | 0.00 | 94 | 1012.9 |
| 20260508130008 | 6 | 182 | 1.6 | 9.7 | 0.00 | 0.00 | 0.00 | 94 | 1012.9 |
| 20260508125002 | 5 | 208 | 4.8 | 11.3 | 0.00 | 0.00 | 0.00 | 94 | 1013.0 |
| 20260508124003 | 4 | 228 | 6.4 | 12.9 | 0.00 | 0.00 | 0.00 | 94 | 1013.0 |
| 20260508123041 | 3 | 194 | 1.6 | 6.4 | 0.00 | 0.00 | 0.00 | 94 | 1013.0 |
| 20260508120031 | 1 | 191 | 1.6 | 3.2 | 0.00 | 0.00 | 0.00 | 93 | 1012.4 |
| 20260508114008 | 1 | 207 | 3.2 | 4.8 | 0.00 | 0.00 | 0.00 | 92 | 1012.1 |
| 20260508112056 | 1 | 215 | 0.0 | 3.2 | 0.00 | 0.00 | 0.00 | 91 | 1012.1 |
| 20260508111007 | 1 | 215 | 0.0 | 3.2 | 0.00 | 0.00 | 0.00 | 91 | 1012.0 |
| 20260508110001 | 0 | 215 | 1.6 | 1.6 | 0.00 | 0.00 | 0.00 | 90 | 1012.0 |
| 20260508104016 | 1 | 242 | 0.0 | 1.6 | 0.00 | 0.00 | 0.00 | 89 | 1012.1 |
| 20260508103013 | 1 | 242 | 0.0 | 3.2 | 0.00 | 0.00 | 0.00 | 89 | 1012.1 |
| 20260508102002 | 1 | 242 | 0.0 | 0.0 | 0.00 | 0.00 | 0.00 | 89 | 1011.9 |
| 20260508100038 | 1 | 242 | 0.0 | 1.6 | 0.00 | 0.00 | 0.00 | 90 | 1011.8 |
| 20260508095100 | 1 | 242 | 0.0 | 1.6 | 0.00 | 0.00 | 0.00 | 90 | 1012.0 |
| 20260508093003 | 1 | 242 | 0.0 | 3.2 | 0.00 | 0.00 | 0.00 | 90 | 1011.8 |
| 20260508092040 | 1 | 242 | 1.6 | 4.8 | 0.00 | 0.00 | 0.00 | 89 | 1012.0 |
| 20260508091000 | 1 | 242 | 1.6 | 3.2 | 0.00 | 0.00 | 0.00 | 88 | 1011.9 |
| 20260508090000 | 1 | 242 | 0.0 | 1.6 | 0.00 | 0.00 | 0.00 | 88 | 1012.0 |
| 20260508085000 | 2 | 242 | 0.0 | 1.6 | 0.00 | 0.00 | 0.00 | 88 | 1012.0 |
| 20260508084009 | 2 | 242 | 1.6 | 4.8 | 0.00 | 0.00 | 0.00 | 88 | 1012.0 |
| 20260508083053 | 2 | 242 | 1.6 | 4.8 | 0.00 | 0.00 | 0.00 | 88 | 1012.1 |
| 20260508082000 | 2 | 242 | 0.0 | 3.2 | 0.00 | 0.00 | 0.00 | 88 | 1012.1 |
| 20260508081005 | 2 | 242 | 0.0 | 1.6 | 0.00 | 0.00 | 0.00 | 88 | 1012.2 |
| 20260508080001 | 2 | 242 | 1.6 | 6.4 | 0.00 | 0.00 | 0.00 | 88 | 1012.2 |
| 20260508075009 | 2 | 244 | 0.0 | 3.2 | 0.00 | 0.00 | 0.00 | 87 | 1012.2 |
| 20260508074001 | 2 | 244 | 0.0 | 1.6 | 0.00 | 0.00 | 0.00 | 86 | 1012.2 |
| 20260508073010 | 2 | 244 | 1.6 | 1.6 | 0.00 | 0.00 | 0.00 | 86 | 1012.4 |
| 20260508072009 | 2 | 244 | 0.0 | 0.0 | 0.00 | 0.00 | 0.00 | 86 | 1012.6 |
| 20260508070027 | 3 | 244 | 0.0 | 3.2 | 0.00 | 0.00 | 0.00 | 86 | 1012.7 |
| 20260508065032 | 3 | 244 | 1.6 | 4.8 | 0.00 | 0.00 | 0.00 | 86 | 1012.8 |